Weather History for Mandan, ND

Change the Weather History Date:

Friday, December 6, 2013

  Actual Average (KBIS) Record (KBIS)
Temperature  
Mean Temperature -10 °F 19 °F  
Max Temperature -7 °F 29 °F 66 °F (1939)
Min Temperature -14 °F 9 °F -28 °F (1950)
Degree Days  
Heating Degree Days 76 46  
Month to date heating degree days 270  
Since 1 July heating degree days 2256  
Cooling Degree Days 0 0  
Month to date cooling degree days 0  
Year to date cooling degree days 520  
Moisture  
Dew Point -18 °F    
Average Humidity 75    
Maximum Humidity 77    
Minimum Humidity 65    
Precipitation  
Precipitation 0.00 in 0.02 in 0.59 in (1883)
Month to date precipitation 0.10  
Year to date precipitation 17.46  
Snow  
Snow 0.00 in 0.30 in 5.40 in (1901)
Month to date snowfall 1.7  
Since 1 July snowfall 12.9  
Snow Depth -    
Sea Level Pressure  
Sea Level Pressure 30.41 in    
Wind  
Wind Speed 15 mph (WNW)    
Max Wind Speed 22 mph    
Max Gust Speed 18 mph    
Visibility 10 miles    
Events      
T = Trace of Precipitation, MM = Missing Value Source: NWS Daily Summary

Daily Weather History Graph

Daily Weather History Graph

Search for Another Location

Airport:

Trip Planner

Search our weather history database for the weather conditions in past years. The results will help you decide how hot, cold, wet, or windy it might be!

Date:

Astronomy

Dec. 06, 2013 Rise Set
Actual Time 8:13 AM CST 4:55 PM CST
Civil Twilight 7:38 AM CST 5:30 PM CST
Nautical Twilight 7:00 AM CST 6:08 PM CST
Astronomical Twilight 6:23 AM CST 6:45 PM CST
Moon 11:11 AM CST (12/6) 9:40 PM CST (12/6)
Length of Visible Light 9h 51m
Length of Day
8h 41m
Waxing Crescent, 19% of the Moon is Illuminated
Dec 6
Waxing Crescent
Dec 9
First Quarter
Dec 17
Full
Dec 25
Last Quarter
Jan 1
New

Hourly Weather History & Observations

Time (CST) Temp. Windchill Dew Point Humidity Pressure Visibility Wind Dir Wind Speed Gust Speed Precip Events Conditions
12:15 AM -7.6 °F -31.1 °F -14.8 °F 71% 30.33 in 10.0 mi WNW 18.4 mph - N/A   Clear
12:35 AM -9.4 °F -34.1 °F -16.6 °F 71% 30.33 in 10.0 mi WNW 19.6 mph - N/A   Clear
12:55 AM -9.4 °F -35.2 °F -16.6 °F 71% 30.33 in 10.0 mi WNW 21.9 mph - N/A   Clear
1:15 AM -9.4 °F -32.8 °F -16.6 °F 71% 30.33 in 10.0 mi WNW 17.3 mph - N/A   Clear
1:35 AM -9.4 °F -31.4 °F -16.6 °F 71% 30.35 in 10.0 mi WNW 15.0 mph - N/A   Clear
1:55 AM -9.4 °F -29.8 °F -16.6 °F 71% 30.35 in 10.0 mi WNW 12.7 mph - N/A   Clear
2:15 AM -11.2 °F -31.1 °F -16.6 °F 77% 30.36 in 10.0 mi WNW 11.5 mph - N/A   Clear
2:35 AM -11.2 °F -31.1 °F -16.6 °F 77% 30.36 in 10.0 mi WNW 11.5 mph - N/A   Clear
2:55 AM -11.2 °F -32.1 °F -16.6 °F 77% 30.37 in 10.0 mi WNW 12.7 mph - N/A   Clear
3:15 AM -11.2 °F -32.1 °F -16.6 °F 77% 30.37 in 10.0 mi WNW 12.7 mph 18.4 mph N/A   Clear
3:35 AM -11.2 °F -33.7 °F -16.6 °F 77% 30.37 in 10.0 mi WNW 15.0 mph - N/A   Clear
3:55 AM -11.2 °F -33.7 °F -16.6 °F 77% 30.37 in 10.0 mi WNW 15.0 mph - N/A   Clear
4:15 AM -11.2 °F -32.9 °F -18.4 °F 70% 30.38 in 10.0 mi WNW 13.8 mph - N/A   Clear
4:35 AM -13.0 °F -34.3 °F -18.4 °F 77% 30.38 in 10.0 mi West 12.7 mph - N/A   Clear
4:55 AM -13.0 °F -35.2 °F -18.4 °F 77% 30.38 in 10.0 mi West 13.8 mph - N/A   Clear
5:15 AM -14.8 °F -36.6 °F -20.2 °F 77% 30.39 in 10.0 mi West 12.7 mph - N/A   Clear
5:55 AM -14.8 °F -32.2 °F -20.2 °F 77% 30.41 in 10.0 mi WNW 8.1 mph - N/A   Clear
6:15 AM -13.0 °F -34.3 °F -18.4 °F 77% 30.41 in 10.0 mi West 12.7 mph - N/A   Clear
6:35 AM -14.8 °F -37.5 °F -20.2 °F 77% 30.41 in 10.0 mi West 13.8 mph - N/A   Clear
6:55 AM -13.0 °F -35.2 °F -18.4 °F 77% 30.42 in 10.0 mi West 13.8 mph - N/A   Clear
7:15 AM -13.0 °F -33.4 °F -18.4 °F 77% 30.42 in 10.0 mi WNW 11.5 mph - N/A   Clear
7:35 AM -14.8 °F -34.6 °F -20.2 °F 77% 30.43 in 10.0 mi West 10.4 mph - N/A   Scattered Clouds
7:55 AM -13.0 °F -36.0 °F -18.4 °F 77% 30.43 in 10.0 mi West 15.0 mph - N/A   Mostly Cloudy
8:15 AM -13.0 °F -36.8 °F -18.4 °F 77% 30.44 in 10.0 mi WNW 16.1 mph - N/A   Overcast
8:35 AM -13.0 °F -36.8 °F -18.4 °F 77% 30.44 in 10.0 mi West 16.1 mph - N/A   Mostly Cloudy
8:55 AM -13.0 °F -36.8 °F -18.4 °F 77% 30.45 in 10.0 mi West 16.1 mph - N/A   Partly Cloudy
9:15 AM -13.0 °F -36.8 °F -18.4 °F 77% 30.45 in 10.0 mi WNW 16.1 mph - N/A   Clear
9:35 AM -13.0 °F -35.2 °F -18.4 °F 77% 30.46 in 10.0 mi WNW 13.8 mph - N/A   Clear
9:55 AM -11.2 °F -31.1 °F -18.4 °F 70% 30.47 in 10.0 mi WNW 11.5 mph - N/A   Clear
10:15 AM -11.2 °F -32.9 °F -18.4 °F 70% 30.47 in 10.0 mi WNW 13.8 mph - N/A   Clear
10:35 AM -11.2 °F -32.1 °F -16.6 °F 77% 30.48 in 10.0 mi WNW 12.7 mph 18.4 mph N/A   Clear
10:55 AM -11.2 °F -32.9 °F -16.6 °F 77% 30.49 in 10.0 mi WNW 13.8 mph - N/A   Clear
11:15 AM -9.4 °F -31.4 °F -16.6 °F 71% 30.50 in 10.0 mi WNW 15.0 mph - N/A   Clear
11:35 AM -9.4 °F -27.9 °F -16.6 °F 71% 30.50 in 10.0 mi WNW 10.4 mph - N/A   Clear
11:55 AM -9.4 °F -28.9 °F -16.6 °F 71% 30.49 in 10.0 mi WNW 11.5 mph - N/A   Partly Cloudy
12:15 PM -7.6 °F -26.6 °F -16.6 °F 65% 30.49 in 10.0 mi WNW 11.5 mph - N/A   Partly Cloudy